Location: Newark
(16.3678°N, 77.8722°E)
Time: 21:24:33
(UTC+00:00)

Courier 1B Rocket - All Passes

Search period start: 07 December 2019 00:00
Search period end: 17 December 2019 00:00
Orbit: 920 x 1202 km, 28.2° (Epoch: 07 December)

Date Brightness Start Highest point End Pass type
(mag) Time Alt. Az. Time Alt. Az. Time Alt. Az.
07 Dec - 00:14:15 10° WSW 00:21:17 73° SSE 00:27:47 10° ENE visible
07 Dec - 02:08:38 10° W 02:14:58 44° NNW 02:20:58 10° NE daylight
07 Dec - 04:03:53 10° WNW 04:09:13 27° N 04:14:27 10° NE daylight
07 Dec - 05:58:00 10° NW 06:03:36 34° NNE 06:09:15 10° ENE daylight
07 Dec - 07:51:09 10° WNW 07:57:26 78° NNE 08:03:59 10° ESE daylight
07 Dec - 09:45:08 10° W 09:50:49 33° SSW 09:56:48 10° SSE daylight
07 Dec - 21:22:38 10° S 21:26:32 15° SSE 21:30:19 10° ESE visible
07 Dec - 23:13:11 10° SW 23:20:10 51° SSE 23:26:39 10° ENE visible
08 Dec - 01:06:59 10° W 01:13:46 58° NNW 01:20:07 10° ENE daylight
08 Dec - 03:02:13 10° WNW 03:07:52 30° N 03:13:18 10° NE daylight
08 Dec - 04:56:55 10° NW 05:02:18 29° N 05:07:40 10° ENE daylight
08 Dec - 06:50:15 10° WNW 06:56:21 56° NNE 07:02:36 10° E daylight
08 Dec - 08:43:45 10° WNW 08:49:47 49° SSW 08:56:09 10° SE daylight
08 Dec - 10:40:19 10° WSW 10:43:14 13° SSW 10:46:15 10° S daylight
08 Dec - 22:12:24 10° SSW 22:19:01 35° SSE 22:25:15 10° E visible
09 Dec - 00:05:26 10° WSW 00:12:35 80° NNW 00:19:15 10° ENE visible
09 Dec - 02:00:25 10° WNW 02:06:32 35° NNW 02:12:20 10° NE daylight
09 Dec - 03:55:35 10° NW 04:00:57 27° N 04:06:12 10° ENE daylight
09 Dec - 05:49:19 10° NW 05:55:13 42° NNE 06:01:08 10° E daylight
09 Dec - 07:42:35 10° WNW 07:48:48 73° SSW 07:55:15 10° ESE daylight
09 Dec - 09:37:32 10° WSW 09:42:07 20° SSW 09:46:52 10° SSE daylight
09 Dec - 21:11:58 10° SSW 21:17:49 24° SSE 21:23:25 10° E visible
09 Dec - 23:04:04 10° WSW 23:11:26 75° SSE 23:18:16 10° ENE visible
10 Dec - 00:58:36 10° W 01:05:14 44° NNW 01:11:27 10° NE daylight
10 Dec - 02:54:00 10° WNW 02:59:34 28° N 03:04:55 10° NE daylight
10 Dec - 04:48:17 10° NW 04:54:00 34° NNE 04:59:37 10° ENE daylight
10 Dec - 06:41:34 10° WNW 06:47:49 80° NNE 06:54:09 10° ESE daylight
10 Dec - 08:35:40 10° W 08:41:07 31° SSW 08:46:44 10° SSE daylight
10 Dec - 20:12:07 10° S 20:16:33 16° SSE 20:20:52 10° ESE night (unlit)
10 Dec - 22:02:56 10° SW 22:10:15 53° SSE 22:17:05 10° ENE visible
10 Dec - 23:56:50 10° W 00:03:58 58° NNW 00:10:36 10° ENE visible
11 Dec - 01:52:14 10° WNW 01:58:10 31° N 02:03:49 10° NE daylight
11 Dec - 03:47:05 10° NW 03:52:41 30° N 03:58:06 10° ENE daylight
11 Dec - 05:40:35 10° WNW 05:46:46 57° NNE 05:52:53 10° E daylight
11 Dec - 07:34:12 10° W 07:40:09 47° SSW 07:46:13 10° SE daylight
11 Dec - 09:31:18 10° SW 09:33:29 12° SSW 09:35:43 10° S daylight
11 Dec - 21:02:05 10° SW 21:09:02 37° SSE 21:15:38 10° E visible
11 Dec - 22:55:13 10° WSW 23:02:43 79° NNW 23:09:41 10° ENE visible
12 Dec - 00:50:20 10° WNW 00:56:47 36° NNW 01:02:50 10° NE daylight
12 Dec - 02:45:38 10° NW 02:51:18 28° N 02:56:42 10° ENE daylight
12 Dec - 04:39:33 10° NW 04:45:37 43° NNE 04:51:31 10° E daylight
12 Dec - 06:32:58 10° WNW 06:39:12 70° SSW 06:45:27 10° SE daylight
12 Dec - 08:28:10 10° WSW 08:32:26 19° SSW 08:36:47 10° SSE daylight
12 Dec - 20:01:37 10° SSW 20:07:47 26° SSE 20:13:46 10° E night (unlit)
12 Dec - 21:53:49 10° WSW 22:01:28 77° SSE 22:08:39 10° ENE visible
12 Dec - 23:48:26 10° W 23:55:25 45° NNW 00:01:56 10° NE visible
13 Dec - 01:43:57 10° WNW 01:49:52 29° N 01:55:28 10° NE daylight
13 Dec - 03:38:24 10° NW 03:44:22 35° NNE 03:50:05 10° ENE daylight
13 Dec - 05:31:51 10° WNW 05:38:13 81° NNE 05:44:28 10° ESE daylight
13 Dec - 07:26:09 10° W 07:31:27 29° SSW 07:36:50 10° SSE daylight
13 Dec - 19:01:43 10° S 19:06:29 17° SSE 19:11:12 10° ESE night (unlit)
13 Dec - 20:52:39 10° SW 21:00:13 55° SSE 21:07:24 10° ENE visible
13 Dec - 22:46:37 10° W 22:54:03 59° NNW 23:01:00 10° ENE visible
14 Dec - 00:42:06 10° WNW 00:48:24 32° N 00:54:20 10° NE visible
14 Dec - 02:37:05 10° NW 02:43:01 31° N 02:48:38 10° ENE daylight
14 Dec - 04:30:46 10° WNW 04:37:09 59° NNE 04:43:18 10° E daylight
14 Dec - 06:24:34 10° W 06:30:32 45° SSW 06:36:27 10° SE daylight
14 Dec - 08:22:20 10° SW 08:23:47 11° SSW 08:25:14 10° SSW daylight
14 Dec - 18:03:46 10° SSE 18:05:08 10° SSE 18:06:30 10° SE night (unlit)
14 Dec - 19:51:49 10° SW 19:58:57 39° SSE 20:05:53 10° E night (unlit)
14 Dec - 21:44:58 10° WSW 21:52:43 78° NNW 22:00:01 10° ENE visible
14 Dec - 23:40:08 10° WNW 23:46:55 37° NNW 23:53:18 10° NE visible
15 Dec - 01:35:32 10° WNW 01:41:35 30° N 01:47:16 10° ENE daylight
15 Dec - 03:29:37 10° NW 03:35:59 45° NNE 03:42:00 10° E daylight
15 Dec - 05:23:13 10° WNW 05:29:35 69° SSW 05:35:47 10° SE daylight
15 Dec - 07:18:40 10° WSW 07:22:46 18° SSW 07:26:52 10° S daylight
15 Dec - 18:51:21 10° SSW 18:57:41 27° SSE 19:03:56 10° E night (unlit)
15 Dec - 20:43:34 10° WSW 20:51:24 79° SSE 20:58:54 10° ENE visible
15 Dec - 22:38:12 10° W 22:45:28 46° NNW 22:52:18 10° NE visible
16 Dec - 00:33:47 10° WNW 00:40:04 30° N 00:45:58 10° ENE visible
16 Dec - 02:28:22 10° NW 02:34:41 37° NNE 02:40:37 10° ENE daylight
16 Dec - 04:21:59 10° WNW 04:28:36 83° NNE 04:34:53 10° ESE daylight
16 Dec - 06:16:29 10° W 06:21:50 29° SSW 06:27:05 10° SSE daylight
16 Dec - 17:51:30 10° S 17:56:24 18° SSE 18:01:18 10° ESE night (unlit)
16 Dec - 19:42:26 10° SW 19:50:06 57° SSE 19:57:34 10° ENE night (unlit)
16 Dec - 21:36:23 10° W 21:44:02 59° NNW 21:51:18 10° ENE visible
16 Dec - 23:31:52 10° WNW 23:38:31 33° N 23:44:47 10° NE visible
